Location: Pl�tzky
(52.0521°N, 11.8020°E)
Time: 12:46:47
(UTC+00:00)

CZ-4B R/B - Pass Details

Date: 22 November 2019
Orbit: 394 x 468 km, 97.6° (Epoch: 13 December)

Event Time Altitude Azimuth Distance (km) Brightness Sun altitude
Rises 16:01:45 0° 8° (N) 2,461 4.8 -7.4°
Reaches altitude 10° 16:03:50 10° 2° (N) 1,596 3.9 -7.7°
Maximum altitude 16:07:05 42° 290° (WNW) 665 2.7 -8.2°
Drops below altitude 10° 16:10:23 10° 218° (SW) 1,612 5.3 -8.7°
Sets 16:12:29 0° 212° (SSW) 2,489 6.1 -9.0°
